sat.trackr.live / text

‹ back to catalog

STARLINK-35795

NORAD 66369 · 2025-254X

PAYLOAD ACTIVE UNKNOWN

§ Identity

Operator
Country
US
Launch date
2025-11-06
Launch site
AFWTR
Launch vehicle
Mass (kg)
RCS (m²)

Purposes: comms

External: N2YO · Heavens-Above · Gunter

§ Orbital elements

Epoch: 2026-05-25T05:16:57.835776Z

Period
94.10 min
Inclination
53.1577°
Eccentricity
0.0001565
Mean motion
15.30219666 rev/d
Perigee alt
474.1 km
Apogee alt
476.2 km
Semi-major
6,853.3 km
B*
6.8571e-4
RAAN
234.7445°
Arg perigee
86.7420°
Mean anomaly
273.3760°
Rev number
3,072

§ Raw data

STARLINK-357951 66369U 25254X   26145.22011384  .00020017  00000+0  68571-3 0  99962 66369  53.1577 234.7445 0001565  86.7420 273.3760 15.30219666 30722

JSON: /api/v1/satellites/66369 · /tle

For live sub-satellite position, see the globe view (requires WebGL).

§ Visibility from observer

Set your observer location to see the next 7 days of passes ≥ 10°. The values pass through the URL so the page stays shareable.

No JS? Fill the form by hand. The geolocation button needs JavaScript.